CZ-6A DEB, 61832

Orbit data source: Space-Track

CZ-6A DEB, 61832 is space debris in LEO originally from a launch on Tue, 06 Aug 2024 UTC launched from the Taiyaun Space Center, China (TSC). Debris objects in space refer to the collection of defunct objects orbiting the Earth. Examples of debris include non-operational satellites, rocket bodies, and fragments generated from explosions, collisions, or faulty payload assembly.

Loading next visibility...
Identifier
61832, 2024-140ACY
Orbit
LEO
Country
Flag of CNCN / PRC
Related business
Manufacturer
SAST
Mission
Spacecraft
Bus & Motor
Unknown
Mass
Unknown
Launch date (UTC)
2024-08-06 (2 years ago)
Launch vehicle
Unknown
Launch site
Taiyaun Space Center, China (TSC)
Object type
Payload
Rocket body
Debris
Shape & HBR
Unknown shape, 0.1 m
Radar Cross Section
Medium (>0.1 m² and <1 m²)

Expand to show TLE details & history
Last TLE update: 16 hours ago

TLE from 16 hours ago
0 CZ-6A DEB
1 61832U 24140ACY 26171.30966573  .00010621  00000-0  21412-2 0  9999
2 61832  89.1331 281.9126 0122166 169.5163 190.8640 14.56743767 93623
Epoch: 2026-06-20T07:25Z
TLE epoch observation values (Epoch: 2026-06-20T07:25:55.119Z)
Latitude
-0.00001°
Longitude
-98.0932°
Altitude
791.836 km
Speed
7.413 km/s
True Right ascension
18h 47m 39s
True Declination
0° 00' 00"
Sunlit
Object was in full shadow at epoch
Visualization orbit readout
Latitude
Unknown
Longitude
Unknown
Altitude
Unknown
Speed
Unknown
Apparent Right ascension
Unknown
Apparent Declination
Unknown
Sunlit
N/A
Visualization observer readout
Local Sidereal Time
10:18:42
Azimuth
Unknown
Elevation
Unknown
Doppler factor
Unknown
Orbital elements
Apogee altitude
787.083 km
Perigee altitude
614.127 km
Semi-major axis
7,078.742 km
Eccentricity
0.01222
Inclination
89.1331°
RAAN
281.9126°
Arg. of periapsis
169.5163°
True anomaly
190.60405°
Mean anomaly
190.864°
Eccentric anomaly
190.73364°
Mean motion
3.64426 °/min
Orbital period
98.79 mins
BSTAR
0.0021412
Loading maneuver chart data...
Computing Atmospheric mass density...
Loading historical data...
Loading historical data...
Loading historical data...
Loading historical data...
Loading historical data...
Loading historical data...
Loading historical data...

Documentation

Showing up to 5 results
|